Weather in Alfyorovo

Russia / Altai Republic     51°58′24″N   86°00′06″E
temp.,
°C
wind,
m/s
gust,
m/s
humid.,
%
clouds,
%
prec.,
mm/h
press.,
hPa
HPBL,
m
17 april, sat
sat1701:00+5s368615 0.0 101570
04:00+5s488732 0.0 1014103
07:00+4sw2289100 0.0 101529
10:00+6wnw2586100 0.3 1016425
13:00+2nw2399100 3.4 1020246
16:00+1wnw1299100 3.1 1022130
19:00+1w11100100 3.6 1024102
22:00+1sw019989 0.1 102585
18 april, sun
sun1801:00−2se119976 0.1 102454
04:00−2s129653 0.0 1023116
07:00−2sse119641 0.0 102217
10:00+4nw11785 0.0 1020407
13:00+7wnw246417 0.0 1018837
16:00+9wnw385312 0.0 10151466
19:00+8ese11725 0.0 101411
22:00+3sse338481 0.0 101341
19 april, mon
mon1901:00+7ssw5156226 0.0 1008319
04:00+5wnw6138595 0.3 1009526
07:00+2wnw71397100 3.2 1013993
10:00−2wnw7117399 1.0 10211019
13:000wnw575896 1.0 10221489
16:00+1nw5751100 0.0 10221802
19:000nw355799 0.1 10231365
22:00−1wnw2470100 0.1 1024318
20 april, tue
tue2001:00−3n2479100 0.3 1025356
04:00−4n2368100 0.1 1026510
07:00−4n2362100 0.1 1026769
10:00−3n2254100 0.0 10261194
13:00−1n3244100 0.1 10241631
16:000nnw3337100 0.0 10231904
19:00−1n444364 0.0 10231472
22:00−4nw11595 0.0 102513
21 april, wed
wed2101:00−5wsw115960 0.0 102518
04:00−5wsw1159100 0.0 102681
07:00−5ssw23605 0.0 1027148
10:00−1sw223519 0.0 10271481
13:00+1w2329100 0.0 10251700
16:00+2wnw2331100 0.0 10231687
19:00+1nne1245100 0.0 1023126
22:00−1e1156100 0.0 102412